Buenos Aires, Argentina

5:39 PM America en Octubre 21, 2018 (GMT +0000)
Jorge Newbery Aeroparque

Tiempo Historia de SABE - Octubre, 2018

Change the Weather History Date:

Jueves, Octubre 11, 2018

  Actual Average Record
Temperature  
Temperatura media 56 ° F -  
Temperatura máxima 59 ° F 72 ° F 77 ° F (2002)
Temperatura mínima 54 ° F 58 ° F 44 ° F (2003)
Degree Days  
Grados día de calefacción 8    
Growing Degree Days 6 (Base 50)    
Moisture  
Punto de rocío 43 ° F    
Average Humidity 59    
Maximum Humidity 77    
Minimum Humidity 32    
Precipitación  
Precipitación 0.02 pul 0.14 pul - ()
Presión al nivel del mar  
Presión al nivel del mar 30.26 pul    
Viento  
Velocidad del viento 10 mph ()    
Velocidad máxima del viento 18 mph    
Max Gust Speed -    
Visibilidad 5.8 Millas    
Eventos Lluvia    
Averages and records for this station are not official NWS values.
T = Trace of Precipitation, MM = Missing Value Source: Averaged Metar Reports

Daily Weather History Graph

Daily Weather History Graph

Search for Another Location

Airport or City:

Astronomía

Oct. 11, 2018 Salida Puesta
Hora real 6:16 AM -03 7:04 PM -03
Crepúsculo civil 5:51 AM -03 7:30 PM -03
Crepúsculo náutico 5:21 AM -03 8:00 PM -03
Crepúsculo astronómico 4:50 AM -03 8:31 PM -03
Luna 8:05 AM -03 (10/11) 9:47 PM -03 (10/11)
Horas de luz 13h 38m
Horas de luz
12h 47m
Creciente, 7% of the Moon is Illuminated
Oct 11
Creciente
Oct 16
Cuarto creciente
Oct 24
Luna llena
Oct 31
Cuarto menguante
Nov 7
Nueva

Hourly Weather History & Observations

Hora (-03) Temp. Punto de rocío Humedad Presión Visibilidad Wind Dir Velocidad del viento Velocidad de ráfagas Precip Eventos Condiciones
12:00 AM 58 ° F 36 ° F 32% 30.32 pul 6 mi SE 12.7 mph - -   Muy nublado
12:00 AM 57.2 ° F 35.6 ° F 44% 30.30 pul - SE 13.8 mph - N/A   Despejado
1:00 AM 57.2 ° F 33.8 ° F 41% 30.30 pul - SE 11.5 mph - N/A   Despejado
2:00 AM 57.2 ° F 32.0 ° F 38% 30.27 pul - SSE 10.4 mph - N/A   Despejado
3:00 AM 57.2 ° F 32.0 ° F 38% 30.27 pul - SSE 9.2 mph - N/A   Despejado
4:00 AM 55.4 ° F 42.8 ° F 63% 30.27 pul - SE 11.5 mph - N/A   Despejado
5:00 AM 55.4 ° F 41.0 ° F 58% 30.30 pul - SE 11.5 mph - N/A   Despejado
6:00 AM 56 ° F 44 ° F 54% 30.33 pul 6 mi SE 10.4 mph - -   Muy nublado
6:00 AM 55.4 ° F 42.8 ° F 63% 30.30 pul - SE 10.4 mph - N/A   Despejado
8:00 AM 55.4 ° F 37.4 ° F 51% 30.33 pul 6.2 mi SE 11.5 mph - N/A   Nubes dispersas
9:00 AM 56 ° F 42 ° F 49% 30.34 pul 6 mi ESE 12.7 mph - - Lluvia Llovizna débil
9:00 AM 55.4 ° F 41.0 ° F 58% 30.33 pul 5.6 mi ESE 11.5 mph - N/A   Nubes dispersas
10:00 AM 57.2 ° F 46.4 ° F 67% 30.33 pul 6.2 mi ENE 11.5 mph - N/A   Nubes dispersas
11:00 AM 57.2 ° F 46.4 ° F 67% 30.33 pul 6.2 mi ENE 11.5 mph - N/A   Nubes dispersas
12:00 PM 58 ° F 47 ° F 58% 30.32 pul 6 mi ENE 12.7 mph - -   Parcialmente nublado
12:00 PM 57.2 ° F 46.4 ° F 67% 30.30 pul 6.2 mi ENE 11.5 mph - N/A   Nubes dispersas
1:00 PM 57.2 ° F 48.2 ° F 72% 30.30 pul 6.2 mi NE 9.2 mph - N/A   Nubes dispersas
2:00 PM 57.2 ° F 48.2 ° F 72% 30.27 pul 6.2 mi NE 10.4 mph - N/A   Nubes dispersas
3:00 PM 57 ° F 49 ° F 66% 30.25 pul 6 mi ENE 9.2 mph - -   Parcialmente nublado
3:00 PM 57.2 ° F 46.4 ° F 67% 30.24 pul 6.2 mi ENE 8.1 mph - N/A   Muy nublado
4:00 PM 55.4 ° F 48.2 ° F 77% 30.21 pul 5.6 mi NE 8.1 mph - N/A   Muy nublado
5:00 PM 55.4 ° F 48.2 ° F 77% 30.21 pul 5.6 mi ENE 8.1 mph - N/A   Llovizna débil
6:00 PM 56 ° F 48 ° F 66% 30.20 pul 2 mi ESE 10.4 mph - - Lluvia Lluvia débil
6:00 PM 55.4 ° F 46.4 ° F 72% 30.18 pul 5.6 mi ESE 11.5 mph - N/A Lluvia Lluvia débil
7:00 PM 55.4 ° F 42.8 ° F 63% 30.18 pul 5.6 mi ESE 16.1 mph - N/A Lluvia Lluvia débil
8:00 PM 57.2 ° F 42.8 ° F 59% 30.18 pul - ESE 16.1 mph - N/A   Despejado
9:00 PM 57 ° F 42 ° F 46% 30.21 pul 6 mi Este 12.7 mph - - Lluvia Lluvia débil
9:00 PM 57.2 ° F 42.8 ° F 59% 30.18 pul 5.6 mi Este 12.7 mph - N/A Lluvia Lluvia débil
10:00 PM 57.2 ° F 46.4 ° F 67% 30.18 pul 5.6 mi ENE 15.0 mph - N/A Lluvia Lluvia débil
11:00 PM 55.4 ° F 46.4 ° F 72% 30.18 pul 6.2 mi ENE 18.4 mph - N/A   Nubes dispersas